Regional Weather Roundup
Issued by NWS Cleveland, OH

Home | Current Version | Previous Version | Graphics & Text | Print | Product List | Glossary On
Versions: 1 2 3 4 5 6 7 8 9 10 11 12 13 14 15 16 17 18 19 20 21 22 23 24 25 26 27 28 29 30 31 32 33 34 35 36 37 38 39 40 41 42 43 44 45 46 47 48 49 50
000
ASUS41 KCLE 080202
RWRCLE
OHIO REGIONAL WEATHER ROUNDUP
NATIONAL WEATHER SERVICE CLEVELAND, OH
900 PM EST WED DEC 07 2016

NOTE: "FAIR" INDICATES FEW OR NO CLOUDS BELOW 12,000 FEET WITH NO
SIGNIFICANT WEATHER AND/OR OBSTRUCTIONS TO VISIBILITY.

OHZ001>008-015>018-024>027-034-035-043-044-080300-
   NORTHWEST OHIO

CITY           SKY/WX    TMP DP  RH WIND       PRES   REMARKS
DEFIANCE       PTCLDY    32  23  69 W7        30.08F WCI  26
FINDLAY        CLOUDY    32  24  72 W14       30.07S WCI  22
TOLEDO EXPRESS PTCLDY    30  25  81 W13       30.06S WCI  20
TOLEDO EXEC    CLOUDY    32  25  75 W10       30.07S WCI  24
LIMA           MOCLDY    31  25  78 W12       30.08S WCI  22
$$

OHZ009>014-019>023-028>033-038-089-080300-
   NORTHEAST OHIO

CITY           SKY/WX    TMP DP  RH WIND       PRES   REMARKS
CLE-HOPKINS    CLOUDY    36  23  59 SW10      30.07F
CLE-LAKEFRONT  CLOUDY    36  24  62 SW15      30.05F
CUY CO. ARPT   MOCLDY    36  25  64 W16       30.04F
LORAIN-ELYRIA  CLOUDY    33  24  69 W12       30.06S WCI  24
ASHTABULA      CLOUDY    33  21  61 SW6       30.03F WCI  28
AKRON-CANTON   CLOUDY    33  22  63 SW7       30.05F WCI  27
WOOSTER        CLOUDY    33  22  63 W12       30.05F WCI  24
MANSFIELD      CLOUDY    33  23  66 SW15      30.05F WCI  23
YOUNGSTOWN     CLOUDY    33  23  66 SW9       30.03F WCI  25
$$

OHZ042-051>053-060>062-070>072-077>081-080300-
  SOUTHWEST OHIO

CITY           SKY/WX    TMP DP  RH WIND       PRES   REMARKS
CINC-COVINGTON CLOUDY    34  25  69 W9        30.16R WCI  27
CINC-LUNKEN    CLOUDY    37  25  61 W6        30.18S
HAMILTON       CLOUDY    35  26  69 W7        30.17S WCI  29
DAYTON         CLOUDY    31  24  75 SW9       30.12S WCI  23
WRIGHT-PAT AFB NOT AVBL
DAYTON GENERAL CLOUDY    34  22  61 SW7       30.13S WCI  28
WILMINGTON     CLOUDY    34  24  67 W9        30.13R WCI  27
$$

OHZ036-037-039>041-045>050-054>059-063>069-073>076-082>088-080300-
  CENTRAL AND SOUTHEAST OHIO

CITY           SKY/WX    TMP DP  RH WIND       PRES   REMARKS
COLUMBUS       CLOUDY    35  26  69 W9        30.10F WCI  28
OSU AIRPORT    CLOUDY    33  26  75 W6        30.10F WCI  28
BOLTON FIELD   NOT AVBL
RICKENBACK AFB   N/A     32  26  76 W7        30.11S WCI  26
NEWARK         CLOUDY    33  25  72 S3        30.09F
MARION         CLOUDY    33  24  69 W10       30.09S WCI  25
LANCASTER      CLOUDY    35  24  64 W5        30.11S
ZANESVILLE     CLOUDY    35  25  66 CALM      30.09S
NEW PHILLY     NOT AVBL
$$




USA.gov is the U.S. government's official web portal to all federal, state and local government web resources and services.